Regional Weather Roundup
Issued by NWS

Home | Current Version | Previous Version | Graphics & Text | Print | Product List | Glossary On
Versions: 1 2 3 4 5 6 7 8 9 10 11 12 13 14 15 16 17 18 19 20 21 22 23 24 25 26 27 28 29 30 31 32 33 34 35 36 37 38 39 40 41 42 43 44 45 46 47 48 49 50
000
ASUS45 KBOU 130510
RWRCO

WEATHER ROUNDUP FOR COLORADO
NATIONAL WEATHER SERVICE DENVER/BOULDER CO
1100 PM MDT SAT JUL 12 2014

NOTE: "FAIR" INDICATES FEW OR NO CLOUDS BELOW 12000 FEET WITH NO
SIGNIFICANT WEATHER AND/OR OBSTRUCTIONS TO VISIBILITY.

COZ001>005-013-030-031-130600-
...NORTHWEST COLORADO...

CITY           SKY/WX    TMP DP  RH WIND       PRES   REMARKS
CRAIG          PTCLDY    63  57  81 CALM      30.31S
HAYDEN         CLEAR     66  52  59 E8        30.34S
MEEKER         CLEAR     65  52  62 CALM      30.31R
MOUNT WERNER   NOT AVBL
STEAMBOAT SPGS CLEAR     67  49  52 CALM      30.37R
WALDEN         CLEAR     59  43  55 NE5       30.48F
$$

COZ006>008-011-130600-
...WEST CENTRAL VALLEYS...

CITY           SKY/WX    TMP DP  RH WIND       PRES   REMARKS
GRAND JUNCTION PTCLDY    85  48  27 NE9       30.13R
MONTROSE       PTCLDY    77  50  38 E18       30.25R
EAGLE          CLOUDY    66  57  72 CALM      30.35R
RIFLE          CLEAR     72  56  57 SE8       30.22R
DELTA          PTCLDY    79  50  36 NE7       30.20R
NUCLA          PTCLDY    73  48  40 E8        30.27R
$$

COZ017>023-064>068-130600-
...SOUTHWEST COLORADO...

CITY           SKY/WX    TMP DP  RH WIND       PRES   REMARKS
DURANGO        MOCLDY    63  54  72 N9        30.32R
CORTEZ         CLEAR     71  49  45 E9        30.25R
PAGOSA SPRINGS MOCLDY    65  45  48 CALM      30.42R
TELLURIDE      PTCLDY    61  52  72 SE3       30.51S
WOLF CREEK PAS NOT AVBL
$$

COZ009-010-012-014-032>034-037-058>063-130600-
...CENTRAL COLORADO...

CITY           SKY/WX    TMP DP  RH WIND       PRES   REMARKS
ASPEN          PTCLDY    66  48  52 SE10      30.42R
BUENA VISTA    MOCLDY    58  54  87 CALM      30.52S
COPPER MTN     PTCLDY    54  45  71 S6        30.77R
BERTHOUD PASS  HAZE      41  28  60 E17       30.82R VSB 1/4
COTTONWOOD PAS MOCLDY    54  50  87 CALM      30.64S
GUNNISON       MOCLDY    61  52  72 NE6       30.49R
KREMMLING      DRIZZLE   64  52  63 E9        30.45R
LEADVILLE      MOCLDY    49  47  93 CALM      30.63R
MONARCH PASS   FOG       45  43  93 NE15      30.86S VSB 1/4
SALIDA         MOCLDY    63  53  70 E6        30.57R
SUNLIGHT       CLEAR     55  46  71 NE3       30.67S
WILKERSON PASS DRZL/FOG  45  45 100 E6        30.77R VSB 1/4
$$

COZ069>075-130600-
...SAN LUIS VALLEY/SANGRE DE CRISTO MOUNTAINS...

CITY           SKY/WX    TMP DP  RH WIND       PRES   REMARKS
ALAMOSA        LGT RAIN  61  51  70 NE3       30.44R
LA VETA PASS   LGT RAIN  46  45  93 E10       30.65S
SAGUACHE       NOT AVBL
$$

COZ035-036-038>040-130600-
...NORTHERN COLORADO FRONT RANGE...

CITY           SKY/WX    TMP DP  RH WIND       PRES   REMARKS
DENVER INTL AP MOCLDY    64  59  83 SW12      30.34S
DMNS CITY PARK   N/A     65  59  82 S7        30.34F
AURORA         NOT AVBL
FRONT RANGE AP NOT AVBL
ERIE MUNI ARPT MOCLDY    66  59  79 S3        30.32S
BOULDER MUN AP MOCLDY    68  57  68 S3        30.33R
CENTENNIAL     CLOUDY    63  56  78 W8        30.38S
BROOMFIELD     NOT AVBL
FORT COLLINS   PTCLDY    66  61  82 SW5       30.32R
LONGMONT       PTCLDY    67  62  82 CALM      30.34R
$$

COZ041-046-047-076>085-087-088-130600-
...PIKES PEAK/PALMER DIVIDE AND SOUTHERN FOOTHILLS...

CITY           SKY/WX    TMP DP  RH WIND       PRES   REMARKS
COLO. SPRINGS  LGT RAIN  61  58  90 N3        30.42F
A. F. ACADEMY  NOT AVBL
ELLICOTT       NOT AVBL
FALCON         CLOUDY    58  57  96 W7        30.45F
FORT CARSON    NOT AVBL
LIMON          CLOUDY    63  60  90 NW12      30.34S
MONUMENT HILL  CLOUDY    55  54  94 W9        30.44F
TRINIDAD       LGT RAIN  63  59  87 N13       30.41R
$$

COZ042>045-048>051-090-091-130600-
...NORTHEAST COLORADO...

CITY           SKY/WX    TMP DP  RH WIND       PRES   REMARKS
GREELEY ARPT   NOT AVBL
AKRON          CLOUDY    70  61  73 NE3       30.28R
BURLINGTON     CLOUDY    72  62  71 NE6       30.24R
WRAY             N/A     70  66  86 N5        30.22R
STERLING       CLOUDY    72  64  78 NE5       30.24R
HOLYOKE        MOCLDY    70  61  73 NE3       30.22R
FORT MORGAN    CLOUDY    67  57  70 N7        30.29R
$$

COZ086-089-092>099-130600-
...SOUTHEAST COLORADO...

CITY           SKY/WX    TMP DP  RH WIND       PRES   REMARKS
PUEBLO         LGT RAIN  65  62  90 NW6       30.34S
LA JUNTA       HVY RAIN  66  63  90 NW12      30.31F FOG
LAMAR          LGT RAIN  65  62  90 SW7       30.25F FOG
SPRINGFIELD      N/A     66  60  81 NW30G39   30.25R
$$


USA.gov is the U.S. government's official web portal to all federal, state and local government web resources and services.